Location: Aldenham
(51.6667°N, 0.3500°W)
Time: 14:05:37
(UTC+00:00)

Okean 2 Rocket - Visible Passes

Search period start: 14 February 2026 00:00
Search period end: 24 February 2026 00:00
Orbit: 611 x 634 km, 82.5° (Epoch: 13 February)

Date Brightness Start Highest point End Pass type
(mag) Time Alt. Az. Time Alt. Az. Time Alt. Az.
14 Feb 4.4 18:31:22 10° NNW 18:35:32 44° W 18:39:40 10° SSW visible
15 Feb 6.6 05:33:56 10° E 05:35:31 12° E 05:37:05 10° ENE visible
15 Feb 5.5 18:50:11 10° NNW 18:53:48 26° W 18:57:24 10° SW visible
16 Feb 6.1 05:50:25 10° SE 05:53:39 20° E 05:56:51 10° NE visible
16 Feb 6.4 19:09:26 10° NW 19:11:58 15° W 19:14:30 10° WSW visible
17 Feb 5.1 06:07:53 10° SSE 06:11:52 33° E 06:15:51 10° NNE visible
17 Feb 3.5 17:48:40 10° NNW 17:53:03 68° W 17:57:22 10° S visible
18 Feb 3.9 06:25:50 10° S 06:30:12 57° E 06:34:34 10° NNE visible
18 Feb 4.8 18:07:19 10° NNW 18:11:23 38° W 18:15:25 10° SSW visible
19 Feb 6.5 05:09:12 10° ESE 05:11:20 13° E 05:13:27 10° NE visible
19 Feb 5.9 18:26:14 10° NW 18:29:38 22° W 18:33:02 10° SW visible
20 Feb 5.8 05:26:03 10° SE 05:29:29 22° E 05:32:55 10° NE visible
20 Feb 6.5 18:45:41 10° NW 18:47:47 13° W 18:49:53 10° WSW visible
21 Feb 4.8 05:43:38 10° SSE 05:47:44 37° E 05:51:49 10° NNE visible
22 Feb 3.6 06:01:41 10° S 06:06:04 66° E 06:10:28 10° NNE visible
23 Feb 6.3 04:44:35 10° ESE 04:47:08 15° E 04:49:40 10° NE visible
23 Feb 3.0 06:20:06 10° SSW 06:24:31 71° WNW 06:28:57 10° N visible
23 Feb 6.1 18:02:17 10° NW 18:05:27 20° W 18:08:36 10° SW visible
